Change the Weather History Date:

Monday, May 27, 2013

  Actual Average Record
Temperature  
Mean Temperature 71 °F -  
Max Temperature 84 °F - 93 °F (2012)
Min Temperature 57 °F - 37 °F (1961)
Degree Days  
Heating Degree Days 0    
Month to date heating degree days 78  
Since 1 July heating degree days 3952  
Cooling Degree Days 6    
Month to date cooling degree days 90  
Growing Degree Days 20 (Base 50)    
Moisture  
Dew Point 58 °F    
Average Humidity 63    
Maximum Humidity 93    
Minimum Humidity 42    
Precipitation  
Precipitation 0.00 in - 1.79 in (1973)
Month to date precipitation 2.63  
Sea Level Pressure  
Sea Level Pressure 30.06 in    
Wind  
Wind Speed 7 mph (SSW)    
Max Wind Speed 20 mph    
Max Gust Speed 25 mph    
Visibility 10 miles    
Events      
T = Trace of Precipitation, MM = Missing Value Source: NWS Daily Summary

Daily Weather History Graph

Daily Weather History Graph

Search for Another Location

Airport or City:

Trip Planner

Search our weather history database for the weather conditions in past years. The results will help you decide how hot, cold, wet, or windy it might be!

Date:

Astronomy

May. 27, 2013 Rise Set
Actual Time 5:34 AM CDT 7:59 PM CDT
Civil Twilight 5:04 AM CDT 8:29 PM CDT
Nautical Twilight 4:28 AM CDT 9:06 PM CDT
Astronomical Twilight 3:47 AM CDT 9:46 PM CDT
Moon 10:40 PM CDT 8:10 AM CDT
Length of Visible Light 15h 24m
Length of Day
14h 24m
Waning Gibbous, 91% of the Moon is Illuminated
May 27
Waning Gibbous
May 31
Last Quarter
Jun 8
New
Jun 16
First Quarter
Jun 23
Full

Hourly Weather History & Observations

Time (CDT) Temp. Heat Index Dew Point Humidity Pressure Visibility Wind Dir Wind Speed Gust Speed Precip Events Conditions
12:52 AM 64.9 °F - 57.0 °F 75% 30.11 in 10.0 mi Calm Calm - N/A   Clear
1:52 AM 64.0 °F - 57.0 °F 78% 30.10 in 10.0 mi Calm Calm - N/A   Clear
2:52 AM 60.1 °F - 57.0 °F 90% 30.09 in 10.0 mi Calm Calm - N/A   Clear
3:52 AM 60.1 °F - 57.0 °F 90% 30.09 in 10.0 mi South 3.5 mph - N/A   Clear
4:52 AM 57.9 °F - 55.0 °F 90% 30.09 in 10.0 mi Calm Calm - N/A   Clear
5:52 AM 57.0 °F - 55.0 °F 93% 30.12 in 9.0 mi Calm Calm - N/A   Clear
6:52 AM 60.1 °F - 57.9 °F 93% 30.13 in 10.0 mi Calm Calm - N/A   Clear
7:52 AM 68.0 °F - 59.0 °F 73% 30.12 in 10.0 mi South 3.5 mph - N/A   Clear
8:52 AM 73.0 °F - 57.9 °F 59% 30.10 in 10.0 mi South 10.4 mph - N/A   Clear
9:52 AM 77.0 °F - 60.1 °F 56% 30.10 in 10.0 mi SSW 9.2 mph - N/A   Clear
10:52 AM 78.1 °F - 59.0 °F 52% 30.09 in 10.0 mi SW 9.2 mph - N/A   Clear
11:52 AM 82.0 °F 82.1 °F 59.0 °F 45% 30.08 in 10.0 mi SW 15.0 mph - N/A   Clear
12:52 PM 82.0 °F 82.1 °F 59.0 °F 45% 30.06 in 10.0 mi SW 13.8 mph 19.6 mph N/A   Scattered Clouds
1:52 PM 82.9 °F 82.6 °F 57.9 °F 42% 30.05 in 10.0 mi WSW 10.4 mph 21.9 mph N/A   Clear
2:52 PM 82.9 °F 82.8 °F 59.0 °F 44% 30.04 in 10.0 mi SSW 13.8 mph 21.9 mph N/A   Clear
3:52 PM 82.0 °F 82.1 °F 59.0 °F 45% 30.03 in 10.0 mi SSW 12.7 mph - N/A   Clear
4:52 PM 82.0 °F 81.7 °F 57.0 °F 42% 30.01 in 10.0 mi SSW 11.5 mph - N/A   Clear
5:52 PM 81.0 °F 80.8 °F 55.9 °F 42% 30.01 in 10.0 mi SSW 10.4 mph - N/A   Partly Cloudy
6:52 PM 79.0 °F - 57.9 °F 48% 30.01 in 10.0 mi South 8.1 mph - N/A   Clear
7:52 PM 75.0 °F - 60.1 °F 60% 30.01 in 10.0 mi South 3.5 mph - N/A   Scattered Clouds
8:52 PM 73.9 °F - 60.1 °F 62% 29.99 in 10.0 mi South 4.6 mph - N/A   Clear
9:52 PM 73.0 °F - 60.1 °F 64% 30.00 in 10.0 mi SSE 4.6 mph - N/A   Clear
10:52 PM 73.0 °F - 61.0 °F 66% 29.99 in 10.0 mi South 5.8 mph - N/A   Clear
11:52 PM 72.0 °F - 61.0 °F 68% 29.99 in 10.0 mi South 4.6 mph - N/A   Clear